KO4LFZ Weather Reports


time (UTC)temp
C
wind
direction
speed
KPH
gust
KPH
rain 1hr
cm
rain 24hr
cm
rain mn
cm
humidity
%
barometer
mb
20260903035505 26 223 0.0 0.0 0.00 0.00 0.00 84 1015.6
20260903035001 26 213 0.0 0.0 0.00 0.00 0.00 85 1015.5
20260903034455 26 223 0.0 0.0 0.00 0.00 0.00 85 1015.8
20260903033949 26 225 0.0 0.0 0.00 0.00 0.00 84 1015.6
20260903033445 26 228 0.0 0.0 0.00 0.00 0.00 84 1015.7
20260903032940 27 230 0.0 0.0 0.00 0.00 0.00 83 1015.9
20260903032435 27 232 0.0 0.0 0.00 0.00 0.00 82 1015.7
20260903031930 27 232 0.0 0.0 0.00 0.00 0.00 82 1015.8
20260903031425 27 229 0.0 0.0 0.00 0.00 0.00 82 1015.6
20260903030920 27 231 0.0 0.0 0.00 0.00 0.00 81 1015.7
20260903030417 27 232 0.0 0.0 0.00 0.00 0.00 80 1015.8
20260903025912 27 226 0.0 0.0 0.00 0.00 0.00 80 1015.9
20260903025408 27 229 0.0 0.0 0.00 0.00 0.00 80 1015.5
20260903024903 28 224 0.0 0.0 0.00 0.00 0.00 79 1015.6
20260903024401 28 229 0.0 0.0 0.00 0.00 0.00 79 1015.7
20260903023856 28 227 0.0 0.0 0.00 0.00 0.00 78 1015.5
20260903023352 28 230 0.0 0.0 0.00 0.00 0.00 78 1015.7
20260903022847 28 282 0.0 0.0 0.00 0.00 0.00 78 1015.6
20260903022346 28 230 0.0 0.0 0.00 0.00 0.00 78 1015.6
20260903021845 28 222 0.0 0.0 0.00 0.00 0.00 78 1015.7
20260903021341 28 221 0.0 0.0 0.00 0.00 0.00 77 1015.6
20260903020841 28 215 0.0 0.0 0.00 0.00 0.00 77 1015.5
20260903020337 28 225 0.0 0.0 0.00 0.00 0.00 76 1015.5
20260903015837 28 222 0.0 0.0 0.00 0.00 0.00 76 1015.3
20260903015332 29 217 0.0 0.0 0.00 0.00 0.00 75 1015.2
20260903014827 29 270 0.0 0.0 0.00 0.00 0.00 75 1015.2
20260903014321 29 213 0.0 0.0 0.00 0.00 0.00 75 1015.2
20260903013817 29 228 0.0 0.0 0.00 0.00 0.00 75 1015.1
20260903013315 29 227 0.0 0.0 0.00 0.00 0.00 75 1015.0
20260903012815 29 231 0.0 0.0 0.00 0.00 0.00 74 1015.3
20260903012310 28 218 0.0 0.0 0.00 0.00 0.00 75 1015.0
20260903011809 28 193 0.0 0.0 0.00 0.00 0.00 75 1015.0
20260903011303 29 233 0.0 0.0 0.00 0.00 0.00 74 1015.0
20260903010758 29 228 0.0 0.0 0.00 0.00 0.00 73 1015.1
20260903010254 30 221 0.0 0.0 0.00 0.00 0.00 72 1015.0
20260903005752 30 207 0.0 0.0 0.00 0.00 0.00 71 1014.8
20260903005247 30 228 0.0 0.0 0.00 0.00 0.00 70 1015.0
20260903004743 30 227 0.0 0.0 0.00 0.00 0.00 69 1014.9
20260903004238 30 225 0.0 0.0 0.00 0.00 0.00 69 1014.8
20260903003734 30 226 0.0 0.0 0.00 0.00 0.00 69 1015.0
20260903003229 31 221 0.0 0.0 0.00 0.00 0.00 68 1015.0
20260903002723 31 174 0.0 0.0 0.00 0.00 0.00 67 1014.9
20260903002218 31 228 0.0 0.0 0.00 0.00 0.00 66 1014.8
20260903001713 31 208 0.0 0.0 0.00 0.00 0.00 65 1015.0
20260903001206 32 216 0.0 0.0 0.00 0.00 0.00 65 1014.9
20260903000703 32 165 0.0 0.0 0.00 0.00 0.00 63 1014.8
20260903000204 32 208 0.0 0.0 0.00 0.00 0.00 62 1015.2
20260902235700 33 207 0.0 0.0 0.00 0.00 0.00 62 1015.0
20260902235156 33 166 0.0 0.0 0.00 0.00 0.00 61 1015.0
20260902234655 33 211 0.0 0.0 0.00 0.00 0.00 60 1015.2
20260902234154 33 145 0.0 0.0 0.00 0.00 0.00 59 1015.2
20260902233649 34 72 0.0 0.0 0.00 0.00 0.00 59 1015.2
20260902233149 34 207 0.0 0.0 0.00 0.00 0.00 59 1015.1
20260902232643 34 209 0.0 0.0 0.00 0.00 0.00 57 1015.1
20260902232141 35 153 0.0 0.0 0.00 0.00 0.00 57 1015.1
20260902231636 35 226 0.0 0.0 0.00 0.00 0.00 57 1015.4
20260902231130 35 104 0.0 0.0 0.00 0.00 0.00 56 1015.3
20260902230625 35 159 0.0 0.0 0.00 0.00 0.00 56 1015.3
20260902230124 35 227 0.0 0.0 0.00 0.00 0.00 53 1015.2
20260902225619 36 233 0.0 0.0 0.00 0.00 0.00 54 1015.0
20260902225119 35 46 0.0 0.0 0.00 0.00 0.00 54 1015.0
20260902224618 35 192 0.0 0.0 0.00 0.00 0.00 57 1015.1
20260902224114 34 137 0.0 0.0 0.00 0.00 0.00 56 1015.1
20260902223610 34 207 0.0 0.0 0.00 0.00 0.00 56 1015.3
20260902223109 35 290 0.0 0.0 0.00 0.00 0.00 55 1015.2
20260902222608 35 205 0.0 0.0 0.00 0.00 0.00 54 1015.1
20260902222106 36 46 0.0 0.0 0.00 0.00 0.00 53 1015.4
20260902221601 36 332 0.0 0.0 0.00 0.00 0.00 52 1015.2
20260902221056 36 222 0.0 0.0 0.00 0.00 0.00 52 1015.1
20260902220552 36 85 0.0 0.0 0.00 0.00 0.00 54 1015.2
20260902220046 36 286 0.0 0.0 0.00 0.00 0.00 53 1015.2
20260902215542 37 354 0.0 0.0 0.00 0.00 0.00 51 1015.1
20260902215037 37 216 0.0 0.0 0.00 0.00 0.00 49 1015.3
20260902214532 36 250 0.0 0.0 0.00 0.00 0.00 48 1015.0
20260902214031 36 224 0.0 0.0 0.00 0.00 0.00 52 1015.0
20260902213527 35 83 0.0 1.6 0.00 0.00 0.00 53 1015.3
20260902213026 35 166 0.0 0.0 0.00 0.00 0.00 56 1015.3
20260902212522 35 216 0.0 0.0 0.00 0.00 0.00 54 1015.4
20260902212018 35 218 0.0 0.0 0.00 0.00 0.00 55 1015.3
20260902211514 35 69 0.0 0.0 0.00 0.00 0.00 55 1015.5
20260902211009 35 54 0.0 0.0 0.00 0.00 0.00 55 1015.4
20260902210509 35 173 0.0 0.0 0.00 0.00 0.00 55 1015.6
20260902210008 35 54 0.0 0.0 0.00 0.00 0.00 54 1015.5
20260902205502 35 229 0.0 0.0 0.00 0.00 0.00 54 1015.6
20260902204958 36 195 0.0 0.0 0.00 0.00 0.00 52 1015.9
20260902204457 37 215 0.0 0.0 0.00 0.00 0.00 54 1015.6
20260902203953 37 205 0.0 0.0 0.00 0.00 0.00 46 1015.8
20260902203448 37 224 0.0 0.0 0.00 0.00 0.00 48 1015.6
20260902202947 37 236 0.0 0.0 0.00 0.00 0.00 48 1015.9
20260902202443 37 174 0.0 0.0 0.00 0.00 0.00 47 1015.7
20260902201940 36 217 0.0 0.0 0.00 0.00 0.00 51 1016.0
20260902201435 36 187 0.0 0.0 0.00 0.00 0.00 51 1016.1
20260902200934 36 240 0.0 0.0 0.00 0.00 0.00 53 1015.9
20260902200430 35 229 0.0 0.0 0.00 0.00 0.00 56 1016.0
20260902195925 35 221 0.0 0.0 0.00 0.00 0.00 53 1016.3
20260902195420 35 214 0.0 0.0 0.00 0.00 0.00 53 1016.2
20260902194915 35 227 0.0 0.0 0.00 0.00 0.00 56 1016.4
20260902194414 36 210 0.0 0.0 0.00 0.00 0.00 52 1016.4
20260902193909 36 225 0.0 0.0 0.00 0.00 0.00 55 1016.3
20260902193405 36 247 0.0 0.0 0.00 0.00 0.00 51 1016.6
20260902192903 36 228 0.0 0.0 0.00 0.00 0.00 51 1016.6
20260902192402 36 221 0.0 0.0 0.00 0.00 0.00 56 1016.7
20260902191856 36 242 0.0 0.0 0.00 0.00 0.00 58 1016.8
20260902191352 36 230 0.0 0.0 0.00 0.00 0.00 52 1017.0
20260902190842 36 235 0.0 0.0 0.00 0.00 0.00 53 1016.8
20260902190341 36 257 0.0 0.0 0.00 0.00 0.00 50 1017.0
20260902185838 36 240 0.0 0.0 0.00 0.00 0.00 52 1016.9
20260902185332 35 231 0.0 0.0 0.00 0.00 0.00 56 1016.9
20260902184828 35 243 0.0 0.0 0.00 0.00 0.00 55 1017.0
20260902184324 35 239 0.0 0.0 0.00 0.00 0.00 56 1017.2
20260902183819 34 213 0.0 0.0 0.00 0.00 0.00 56 1017.2
20260902183315 34 223 0.0 0.0 0.00 0.00 0.00 57 1017.1
20260902182811 35 232 0.0 0.0 0.00 0.00 0.00 55 1017.1
20260902182307 36 234 0.0 3.2 0.00 0.00 0.00 53 1017.1
20260902181803 36 238 0.0 0.0 0.00 0.00 0.00 53 1017.3
20260902181303 36 173 0.0 0.0 0.00 0.00 0.00 52 1017.3
20260902180758 35 58 0.0 0.0 0.00 0.00 0.00 55 1017.2
20260902180253 35 59 0.0 0.0 0.00 0.00 0.00 52 1017.3
20260902175748 35 340 0.0 0.0 0.00 0.00 0.00 55 1017.3
20260902175244 35 242 0.0 0.0 0.00 0.00 0.00 58 1017.6
20260902174739 35 257 0.0 0.0 0.00 0.00 0.00 55 1017.6
20260902174236 36 233 0.0 0.0 0.00 0.00 0.00 56 1017.6
20260902173731 36 216 0.0 0.0 0.00 0.00 0.00 51 1017.7
20260902173226 35 231 0.0 0.0 0.00 0.00 0.00 58 1017.6
20260902172720 35 282 0.0 0.0 0.00 0.00 0.00 60 1017.6
20260902172220 35 308 0.0 0.0 0.00 0.00 0.00 60 1017.7
20260902171715 35 220 0.0 0.0 0.00 0.00 0.00 58 1017.9
20260902171210 35 281 0.0 0.0 0.00 0.00 0.00 56 1017.9
20260902170707 35 263 0.0 0.0 0.00 0.00 0.00 60 1017.8
20260902170202 35 232 0.0 0.0 0.00 0.00 0.00 62 1018.2
20260902165702 35 252 0.0 0.0 0.00 0.00 0.00 62 1018.1
20260902165156 35 240 0.0 0.0 0.00 0.00 0.00 61 1018.1
20260902164652 34 268 0.0 0.0 0.00 0.00 0.00 63 1017.9
20260902164151 35 270 0.0 0.0 0.00 0.00 0.00 64 1018.2
20260902163646 34 251 0.0 0.0 0.00 0.00 0.00 60 1018.2
20260902163146 33 263 0.0 0.0 0.00 0.00 0.00 60 1018.3
20260902162644 33 224 0.0 0.0 0.00 0.00 0.00 64 1018.2
20260902162139 34 262 0.0 0.0 0.00 0.00 0.00 63 1018.5
20260902161634 33 227 0.0 0.0 0.00 0.00 0.00 62 1018.4
20260902161130 33 256 0.0 0.0 0.00 0.00 0.00 63 1018.6
20260902160626 33 262 0.0 0.0 0.00 0.00 0.00 63 1018.6
20260902160121 33 273 0.0 0.0 0.00 0.00 0.00 65 1018.3
20260902155619 33 214 0.0 0.0 0.00 0.00 0.00 62 1018.6
20260902155118 33 242 0.0 0.0 0.00 0.00 0.00 64 1018.8
20260902154613 33 240 0.0 0.0 0.00 0.00 0.00 64 1018.6
20260902154108 33 228 0.0 0.0 0.00 0.00 0.00 61 1019.1
20260902153607 33 271 0.0 0.0 0.00 0.00 0.00 61 1018.9
20260902153102 33 228 0.0 0.0 0.00 0.00 0.00 63 1019.0
20260902152559 33 216 0.0 0.0 0.00 0.00 0.00 65 1018.8
20260902152054 33 231 0.0 0.0 0.00 0.00 0.00 63 1018.6
20260902151550 33 227 0.0 0.0 0.00 0.00 0.00 68 1019.0
20260902151049 33 231 0.0 0.0 0.00 0.00 0.00 66 1018.9
20260902150544 33 263 0.0 0.0 0.00 0.00 0.00 67 1018.8
20260902150039 32 205 0.0 0.0 0.00 0.00 0.00 66 1018.8
20260902145529 32 231 0.0 0.0 0.00 0.00 0.00 69 1018.8
20260902145028 32 227 0.0 0.0 0.00 0.00 0.00 69 1018.8
20260902144526 32 229 0.0 0.0 0.00 0.00 0.00 70 1018.9
20260902144025 31 231 0.0 0.0 0.00 0.00 0.00 72 1018.4
20260902143520 31 213 0.0 0.0 0.00 0.00 0.00 71 1018.6
20260902143016 31 215 0.0 0.0 0.00 0.00 0.00 72 1018.5
20260902142512 30 210 0.0 0.0 0.00 0.00 0.00 71 1018.6
20260902142007 30 197 0.0 0.0 0.00 0.00 0.00 72 1018.8
20260902141501 30 208 0.0 0.0 0.00 0.00 0.00 74 1018.6
20260902140956 30 191 0.0 0.0 0.00 0.00 0.00 73 1018.6
20260902140451 30 207 0.0 0.0 0.00 0.00 0.00 75 1018.8
20260902135950 29 213 0.0 0.0 0.00 0.00 0.00 74 1018.6
20260902135446 29 171 0.0 0.0 0.00 0.00 0.00 74 1019.0
20260902134945 29 195 0.0 0.0 0.00 0.00 0.00 75 1018.6
20260902134441 28 199 0.0 0.0 0.00 0.00 0.00 77 1018.6
20260902133936 28 215 0.0 0.0 0.00 0.00 0.00 80 1019.0
20260902133431 28 190 0.0 0.0 0.00 0.00 0.00 80 1018.6
20260902132926 28 209 0.0 0.0 0.00 0.00 0.00 79 1018.6
20260902132421 27 205 0.0 0.0 0.00 0.00 0.00 81 1018.6
20260902131916 27 208 0.0 0.0 0.00 0.00 0.00 82 1018.5
20260902131413 27 199 0.0 0.0 0.00 0.00 0.00 83 1018.6
20260902130912 26 201 0.0 0.0 0.00 0.00 0.00 84 1018.9
20260902130408 26 190 0.0 0.0 0.00 0.00 0.00 84 1018.6
20260902125903 26 188 0.0 0.0 0.00 0.00 0.00 86 1018.5
20260902125359 26 225 0.0 0.0 0.00 0.00 0.00 87 1018.5
20260902124855 26 197 0.0 0.0 0.00 0.00 0.00 89 1018.5
20260902124350 25 216 0.0 0.0 0.00 0.00 0.00 90 1018.6
20260902123845 25 229 0.0 0.0 0.00 0.00 0.00 91 1018.4
20260902123342 25 212 0.0 0.0 0.00 0.00 0.00 92 1018.3
20260902122840 24 218 0.0 0.0 0.00 0.00 0.00 95 1018.2
20260902122336 23 216 0.0 0.0 0.00 0.00 0.00 97 1018.3
20260902121836 23 226 0.0 0.0 0.00 0.00 0.00 99 1018.2
20260902121331 23 233 0.0 0.0 0.00 0.00 0.00 99 1018.3
20260902120826 23 227 0.0 0.0 0.00 0.00 0.00 99 1018.0
20260902120323 22 229 0.0 0.0 0.00 0.00 0.00 99 1017.9
20260902115817 22 234 0.0 0.0 0.00 0.00 0.00 99 1017.8
20260902115314 22 226 0.0 0.0 0.00 0.00 0.00 99 1017.9
20260902114810 22 227 0.0 0.0 0.00 0.00 0.00 99 1018.2
20260902114305 22 230 0.0 0.0 0.00 0.00 0.00 99 1017.8
20260902113800 22 225 0.0 0.0 0.00 0.00 0.00 99 1017.8
20260902113255 22 228 0.0 0.0 0.00 0.00 0.00 99 1017.8
20260902112754 22 231 0.0 0.0 0.00 0.00 0.00 99 1017.7
20260902112252 22 232 0.0 0.0 0.00 0.00 0.00 99 1017.9
20260902111746 22 229 0.0 0.0 0.00 0.00 0.00 99 1017.9
20260902111243 22 230 0.0 0.0 0.00 0.00 0.00 98 1018.0
20260902110738 22 231 0.0 0.0 0.00 0.00 0.00 98 1017.6
20260902110234 22 230 0.0 0.0 0.00 0.00 0.00 99 1017.5
20260902105734 22 227 0.0 0.0 0.00 0.00 0.00 99 1017.5
20260902105229 22 229 0.0 0.0 0.00 0.00 0.00 98 1017.2
20260902104724 22 230 0.0 0.0 0.00 0.00 0.00 98 1017.6
20260902104221 22 227 0.0 0.0 0.00 0.00 0.00 99 1017.4
20260902103720 22 228 0.0 0.0 0.00 0.00 0.00 98 1017.3
20260902103219 22 210 0.0 0.0 0.00 0.00 0.00 99 1017.2
20260902102715 22 171 0.0 0.0 0.00 0.00 0.00 98 1017.3
20260902102213 22 213 0.0 0.0 0.00 0.00 0.00 98 1017.3
20260902101708 22 226 0.0 0.0 0.00 0.00 0.00 98 1017.0
20260902101202 22 223 0.0 0.0 0.00 0.00 0.00 98 1017.3
20260902100656 22 229 0.0 0.0 0.00 0.00 0.00 97 1017.4
20260902100151 23 227 0.0 0.0 0.00 0.00 0.00 98 1017.3
20260902095650 23 210 0.0 0.0 0.00 0.00 0.00 97 1017.3
20260902095144 23 221 0.0 0.0 0.00 0.00 0.00 97 1017.2
20260902094639 23 228 0.0 0.0 0.00 0.00 0.00 97 1017.2
20260902094136 23 214 0.0 0.0 0.00 0.00 0.00 97 1017.1
20260902093635 23 196 0.0 0.0 0.00 0.00 0.00 97 1017.0
20260902093130 23 201 0.0 0.0 0.00 0.00 0.00 97 1017.2
20260902092624 23 191 0.0 0.0 0.00 0.00 0.00 97 1017.2
20260902092119 23 193 0.0 0.0 0.00 0.00 0.00 96 1017.1
20260902091614 23 195 0.0 0.0 0.00 0.00 0.00 96 1017.1
20260902091105 23 187 0.0 0.0 0.00 0.00 0.00 97 1017.1
20260902090601 23 228 0.0 0.0 0.00 0.00 0.00 96 1016.9
20260902090059 23 212 0.0 0.0 0.00 0.00 0.00 97 1016.8
20260902085049 23 191 0.0 0.0 0.00 0.00 0.00 96 1017.0
20260902084545 23 209 0.0 0.0 0.00 0.00 0.00 96 1016.9
20260902082022 24 214 0.0 0.0 0.00 0.00 0.00 94 1017.0
20260902081519 24 220 0.0 0.0 0.00 0.00 0.00 94 1017.0
20260902081018 23 198 0.0 0.0 0.00 0.00 0.00 94 1017.1
20260902080514 23 218 0.0 0.0 0.00 0.00 0.00 95 1016.9
20260902080010 23 215 0.0 0.0 0.00 0.00 0.00 95 1016.8
20260902075505 23 199 0.0 0.0 0.00 0.00 0.00 95 1017.0
20260902075000 23 219 0.0 0.0 0.00 0.00 0.00 95 1017.0
20260902074455 23 226 0.0 0.0 0.00 0.00 0.00 95 1017.0
20260902073950 23 218 0.0 0.0 0.00 0.00 0.00 95 1017.1
20260902073446 23 216 0.0 0.0 0.00 0.00 0.00 95 1016.8
20260902072942 23 236 0.0 0.0 0.00 0.00 0.00 94 1017.2
20260902072438 23 233 0.0 0.0 0.00 0.00 0.00 94 1017.1
20260902071934 23 224 0.0 0.0 0.00 0.00 0.00 94 1017.0
20260902071433 23 225 0.0 0.0 0.00 0.00 0.00 93 1016.9
20260902070930 23 230 0.0 0.0 0.00 0.00 0.00 92 1017.0
20260902070425 23 227 0.0 0.0 0.00 0.00 0.00 91 1016.9
20260902065924 24 230 0.0 0.0 0.00 0.00 0.00 90 1017.0
20260902065419 25 225 0.0 0.0 0.00 0.00 0.00 91 1017.0
20260902064914 25 225 0.0 0.0 0.00 0.00 0.00 91 1017.2
20260902064410 25 222 0.0 0.0 0.00 0.00 0.00 91 1017.0
20260902063906 25 223 0.0 0.0 0.00 0.00 0.00 90 1016.9
20260902063405 25 227 0.0 0.0 0.00 0.00 0.00 90 1017.1
20260902062901 25 221 0.0 0.0 0.00 0.00 0.00 90 1017.1
20260902062400 25 226 0.0 0.0 0.00 0.00 0.00 90 1016.8
20260902061859 25 224 0.0 0.0 0.00 0.00 0.00 89 1016.9
20260902061355 25 231 0.0 0.0 0.00 0.00 0.00 87 1016.8
20260902060851 26 227 0.0 0.0 0.00 0.00 0.00 86 1016.7
20260902060346 26 218 0.0 0.0 0.00 0.00 0.00 86 1016.9
20260902055842 26 219 0.0 0.0 0.00 0.00 0.00 86 1016.9
20260902055338 26 218 0.0 0.0 0.00 0.00 0.00 86 1016.9
20260902054833 26 217 0.0 0.0 0.00 0.00 0.00 86 1016.9
20260902054329 26 209 0.0 0.0 0.00 0.00 0.00 85 1016.9
20260902053824 26 220 0.0 0.0 0.00 0.00 0.00 85 1016.8
20260902053319 26 206 0.0 0.0 0.00 0.00 0.00 85 1017.0
20260902052818 26 211 0.0 0.0 0.00 0.00 0.00 85 1016.9
20260902052314 26 217 0.0 0.0 0.00 0.00 0.00 85 1016.8
20260902051808 26 192 0.0 0.0 0.00 0.00 0.00 85 1016.7
20260902051301 26 213 0.0 0.0 0.00 0.00 0.00 86 1016.7
20260902050756 26 211 0.0 0.0 0.00 0.00 0.00 86 1016.5
20260902050251 26 228 0.0 0.0 0.00 0.00 0.00 87 1016.8
20260902045751 26 228 0.0 0.0 0.00 0.00 0.00 86 1016.6
20260902045247 26 230 0.0 0.0 0.00 0.00 0.00 85 1016.6
20260902044743 26 227 0.0 0.0 0.00 0.00 0.00 85 1016.6
20260902044238 26 228 0.0 0.0 0.00 0.00 0.00 84 1016.3
20260902043733 26 229 0.0 0.0 0.00 0.00 0.00 84 1016.5
20260902043229 26 230 0.0 0.0 0.00 0.00 0.00 84 1016.4
20260902042728 26 229 0.0 0.0 0.00 0.00 0.00 84 1016.5
20260902042223 27 226 0.0 0.0 0.00 0.00 0.00 84 1016.6
20260902041718 27 229 0.0 0.0 0.00 0.00 0.00 83 1016.7
20260902041213 27 222 0.0 0.0 0.00 0.00 0.00 83 1016.7
20260902040712 27 228 0.0 0.0 0.00 0.00 0.00 83 1016.5
20260902040208 27 191 0.0 0.0 0.00 0.00 0.00 82 1016.8